Weather History for San Jose, Costa Rica

Change the Weather History Date:

Tuesday, January 27, 2009

  Actual Average Record
Temperature  
Mean Temperature 74 °F -  
Max Temperature 82 °F 81 °F 86 °F (1998)
Min Temperature 65 °F 64 °F 60 °F (2004)
Cooling Degree Days 8    
Growing Degree Days 24 (Base 50)    
Moisture  
Dew Point 57 °F    
Average Humidity 57    
Maximum Humidity 73    
Minimum Humidity 32    
Precipitation  
Precipitation 0.00 in 0.01 in - ()
Sea Level Pressure  
Sea Level Pressure 29.97 in    
Wind  
Wind Speed 12 mph ()    
Max Wind Speed 21 mph    
Max Gust Speed 26 mph    
Visibility 7.3 miles    
Events      
Averages and records for this station are not official NWS values.
T = Trace of Precipitation, MM = Missing Value Source: Averaged Metar Reports

Daily Weather History Graph

Daily Weather History Graph

Search for Another Location

Airport:

Trip Planner

Search our weather history database for the weather conditions in past years. The results will help you decide how hot, cold, wet, or windy it might be!

Date:

Astronomy

Jan. 27, 2009 Rise Set
Actual Time 5:59 AM CST 5:40 PM CST
Civil Twilight 5:37 AM CST 6:02 PM CST
Nautical Twilight 5:11 AM CST 6:27 PM CST
Astronomical Twilight 4:46 AM CST 6:52 PM CST
Moon 6:51 AM CST (1/27) 6:54 PM CST (1/27)
Length of Visible Light 12h 24m
Length of Day
11h 40m
New Moon, 2% of the Moon is Illuminated
Jan 27
New Moon
Feb 2
First Quarter
Feb 9
Full
Feb 16
Last Quarter
Feb 24
New

Hourly Weather History & Observations

Time (CST) Temp. Heat Index Dew Point Humidity Pressure Visibility Wind Dir Wind Speed Gust Speed Precip Events Conditions
12:00 AM 66.2 °F - 57.2 °F 73% 30.01 in 6.2 mi East 11.5 mph - N/A   Unknown
1:00 AM 66.2 °F - 57.2 °F 73% 30.00 in 6.2 mi East 13.8 mph - N/A   Unknown
2:00 AM 68.0 °F - 57.2 °F 68% 29.99 in 6.2 mi East 12.7 mph - N/A   Unknown
3:00 AM 68 °F - 55 °F 55% 29.83 in 12 mi Calm Calm - -  
3:00 AM 68.0 °F - 55.4 °F 64% 29.98 in 6.2 mi East 11.5 mph - N/A   Unknown
4:00 AM 66.2 °F - 57.2 °F 73% 29.99 in 6.2 mi East 9.2 mph - N/A   Unknown
5:00 AM 66.2 °F - 55.4 °F 68% 30.01 in 6.2 mi East 11.5 mph - N/A   Unknown
6:00 AM 66 °F - 55 °F 60% 29.92 in 12 mi Calm Calm - -  
6:00 AM 66.2 °F - 55.4 °F 68% 30.02 in 6.2 mi ESE 11.5 mph - N/A   Unknown
7:00 AM 69.8 °F - 55.4 °F 60% 30.04 in 6.2 mi East 10.4 mph - N/A   Unknown
8:00 AM 73.4 °F - 57.2 °F 57% 30.05 in 6.2 mi East 12.7 mph - N/A   Unknown
9:00 AM 77 °F - 55 °F 37% 29.90 in 12 mi East 16.1 mph - -   Scattered Clouds
9:00 AM 77.0 °F - 55.4 °F 47% 30.05 in 6.2 mi East 16.1 mph - N/A   Partly Cloudy
10:00 AM 80.6 °F 80.3 °F 53.6 °F 39% 30.04 in 6.2 mi East 16.1 mph - N/A   Partly Cloudy
11:00 AM 80.6 °F 80.3 °F 53.6 °F 39% 30.02 in 6.2 mi East 13.8 mph - N/A   Partly Cloudy
12:00 PM 82 °F - 57 °F 32% 29.85 in 12 mi East 16.1 mph - -   Scattered Clouds
12:00 PM 82.4 °F 82.0 °F 57.2 °F 42% 29.99 in 6.2 mi East 16.1 mph - N/A   Partly Cloudy
1:00 PM 82.4 °F 82.0 °F 57.2 °F 42% 29.97 in 6.2 mi East 16.1 mph - N/A   Partly Cloudy
2:00 PM 84.2 °F 83.5 °F 57.2 °F 40% 29.95 in 6.2 mi ENE 13.8 mph - N/A   Partly Cloudy
3:00 PM 80.6 °F 80.8 °F 57.2 °F 45% 29.95 in 6.2 mi ENE 13.8 mph 25.3 mph N/A   Partly Cloudy
4:00 PM 80.6 °F 81.1 °F 59.0 °F 48% 29.94 in 6.2 mi ENE 20.7 mph - N/A   Partly Cloudy
5:00 PM 77.0 °F - 59.0 °F 54% 29.96 in 6.2 mi ENE 15.0 mph 26.5 mph N/A   Partly Cloudy
6:00 PM 73 °F - 61 °F 57% 29.83 in 12 mi East 12.7 mph - -   Partly Cloudy
6:00 PM 73.4 °F - 60.8 °F 65% 29.97 in 6.2 mi East 12.7 mph - N/A   Scattered Clouds
7:00 PM 71.6 °F - 60.8 °F 69% 29.98 in 6.2 mi East 12.7 mph - N/A   Partly Cloudy
8:00 PM 71.6 °F - 62.6 °F 73% 29.98 in 6.2 mi East 15.0 mph - N/A   Partly Cloudy
10:00 PM 69.8 °F - 60.8 °F 73% 29.99 in - North - - N/A   Unknown
11:00 PM 69.8 °F - 60.8 °F 73% 29.99 in 6.2 mi East 9.2 mph - N/A   Unknown